GSAT0205 (GALILEO 9) (40889 NORAD) Tracking and Keplerian Element Data

This shows tracking and keplerian element data for the satellite.

Feedback or suggestion? Click here.




ElementValue
Catalog40889
NameGSAT0205 (GALILEO 9)
Epoch Orbit3230
Epoch Day324.2012247
Epoch Year2020
RAAN277.8387
Inclination56.0354
Eccentricity0.0004756
Argument of Perigee348.906
Mean Anonmoly11.0656
Mean Motion1.7047459
Decay Rate-3.2E-07
L11 40889U 15045A 20324.20122470 -.00000032 00000-0 00000-0 0 9999
L22 40889 56.0354 277.8387 0004756 348.9060 11.0656 1.70474590 32302

Live tracking and technical data element details for GSAT0205 (GALILEO 9) (NORAD 40889). GSAT0205 (GALILEO 9) can be tracked NOW for your location showing map with azimuth and elevation plus other details from your city location.

Track the satellite on the map from your city or location and see movement details for azimuth, elevation, latitude, longitude, range, height, and movement on the map or in text.







IsCatalogInMostPopularTable: catalog: 40889, numindb: 552
Update: records affected: 1



GetName: 40889 GSAT0205 (GALILEO 9)

Hit Count: updated at: Mon, 23 Nov 2020 21:37:31 GMT